Weather History for KPVJ - January, 2013

Change the Weather History Date:

Tuesday, January 8, 2013

  Actual Average (KADH) Record (KADH)
Temperature  
Mean Temperature 42 °F -  
Max Temperature 50 °F 45 °F 74 °F (1923)
Min Temperature 35 °F 23 °F -3 °F (1988)
Degree Days  
Heating Degree Days 22    
Moisture  
Dew Point 37 °F    
Average Humidity 80    
Maximum Humidity 100    
Minimum Humidity 58    
Precipitation  
Precipitation 0.04 in - - ()
Sea Level Pressure  
Sea Level Pressure 30.08 in    
Wind  
Wind Speed 6 mph (SE)    
Max Wind Speed 12 mph    
Max Gust Speed -    
Visibility 9 miles    
Events Rain    
Averages and records for this station are not official NWS values.
T = Trace of Precipitation, MM = Missing Value Source: NWS Daily Summary

Daily Weather History Graph

Daily Weather History Graph

Search for Another Location

Airport or City:

Trip Planner

Search our weather history database for the weather conditions in past years. The results will help you decide how hot, cold, wet, or windy it might be!

Date:

Astronomy

Jan. 08, 2013 Rise Set
Actual Time 7:36 AM CST 5:35 PM CST
Civil Twilight 7:09 AM CST 6:02 PM CST
Nautical Twilight 6:37 AM CST 6:33 PM CST
Astronomical Twilight 6:07 AM CST 7:04 PM CST
Moon 4:11 AM CST (1/8) 2:38 PM CST (1/8)
Length of Visible Light 10h 53m
Length of Day
9h 58m
Waning Crescent, 13% of the Moon is Illuminated
Jan 8
Waning Crescent
Jan 11
New
Jan 18
First Quarter
Jan 26
Full
Feb 3
Last Quarter

Hourly Weather History & Observations

Time (CST) Temp. Windchill Dew Point Humidity Pressure Visibility Wind Dir Wind Speed Gust Speed Precip Events Conditions
12:15 AM 35.6 °F 32.8 °F 32.0 °F 87% 30.11 in 10.0 mi SSE 3.5 mph - N/A   Unknown
12:55 AM 37.4 °F 33.8 °F 32.0 °F 81% 30.10 in 10.0 mi SE 4.6 mph - N/A   Unknown
1:15 AM 35.6 °F 32.8 °F 32.0 °F 87% 30.10 in 10.0 mi SSE 3.5 mph - N/A   Unknown
1:35 AM 35.6 °F 31.7 °F 30.2 °F 81% 30.09 in 10.0 mi SSE 4.6 mph - N/A   Unknown
1:55 AM 35.6 °F 29.9 °F 32.0 °F 87% 30.09 in 10.0 mi SSE 6.9 mph - N/A   Unknown
2:15 AM 37.4 °F 30.8 °F 32.0 °F 81% 30.10 in 10.0 mi SSE 9.2 mph - N/A   Unknown
2:35 AM 37.4 °F 30.8 °F 32.0 °F 81% 30.09 in 10.0 mi SSE 9.2 mph - N/A   Unknown
2:55 AM 37.4 °F 31.4 °F 30.2 °F 75% 30.09 in 10.0 mi SSE 8.1 mph - N/A   Unknown
3:15 AM 37.4 °F 32.8 °F 30.2 °F 75% 30.08 in 10.0 mi SSE 5.8 mph - N/A   Unknown
3:35 AM 37.4 °F 33.8 °F 30.2 °F 75% 30.08 in 10.0 mi SE 4.6 mph - N/A   Unknown
3:55 AM 37.4 °F 33.8 °F 30.2 °F 75% 30.07 in 10.0 mi SSE 4.6 mph - N/A   Unknown
4:15 AM 37.4 °F 32.1 °F 30.2 °F 75% 30.07 in 10.0 mi SSE 6.9 mph - N/A   Unknown
4:35 AM 37.4 °F 32.1 °F 30.2 °F 75% 30.06 in 10.0 mi South 6.9 mph - N/A   Unknown
4:55 AM 37.4 °F 32.8 °F 30.2 °F 75% 30.06 in 10.0 mi South 5.8 mph - N/A   Unknown
5:15 AM 37.4 °F 32.1 °F 30.2 °F 75% 30.05 in 10.0 mi SSE 6.9 mph - N/A   Unknown
5:35 AM 37.4 °F 32.1 °F 30.2 °F 75% 30.06 in 10.0 mi SSE 6.9 mph - N/A   Unknown
5:55 AM 37.4 °F 32.8 °F 30.2 °F 75% 30.06 in 10.0 mi South 5.8 mph - N/A   Unknown
6:15 AM 39.2 °F 34.2 °F 32.0 °F 75% 30.06 in 10.0 mi South 6.9 mph - N/A   Unknown
6:35 AM 41.0 °F 35.2 °F 32.0 °F 70% 30.08 in 10.0 mi South 9.2 mph - N/A   Unknown
6:55 AM 41.0 °F 37.1 °F 32.0 °F 70% 30.08 in 10.0 mi SSE 5.8 mph - N/A   Unknown
7:15 AM 41.0 °F 35.2 °F 32.0 °F 70% 30.08 in 10.0 mi SSE 9.2 mph - N/A   Unknown
7:35 AM 41.0 °F 35.8 °F 32.0 °F 70% 30.08 in 10.0 mi SSE 8.1 mph - N/A   Unknown
7:55 AM 41.0 °F 37.1 °F 32.0 °F 70% 30.09 in 10.0 mi SSE 5.8 mph - N/A   Unknown
8:15 AM 41.0 °F 36.4 °F 32.0 °F 70% 30.08 in 10.0 mi SSE 6.9 mph - N/A   Unknown
8:35 AM 42.8 °F 38.0 °F 32.0 °F 66% 30.09 in 10.0 mi South 8.1 mph - N/A   Unknown
8:55 AM 42.8 °F 39.3 °F 32.0 °F 66% 30.09 in 10.0 mi South 5.8 mph - N/A   Unknown
9:15 AM 42.8 °F 37.5 °F 32.0 °F 66% 30.10 in 10.0 mi SSE 9.2 mph - N/A   Unknown
9:35 AM 44.6 °F 40.7 °F 33.8 °F 66% 30.10 in 10.0 mi SSE 6.9 mph - N/A   Unknown
9:55 AM 44.6 °F 40.7 °F 33.8 °F 66% 30.09 in 10.0 mi SSE 6.9 mph - N/A   Unknown
10:15 AM 46.4 °F 41.5 °F 35.6 °F 66% 30.10 in 10.0 mi SSE 10.4 mph - N/A   Unknown
10:35 AM 46.4 °F 41.9 °F 35.6 °F 66% 30.10 in 10.0 mi SSE 9.2 mph - N/A   Unknown
10:55 AM 50.0 °F - 35.6 °F 58% 30.08 in 10.0 mi South 8.1 mph - N/A   Unknown
11:15 AM 50.0 °F - 35.6 °F 58% 30.08 in 10.0 mi SE 9.2 mph - N/A   Unknown
11:35 AM 50.0 °F - 35.6 °F 58% 30.09 in 10.0 mi SSE 9.2 mph - N/A   Unknown
11:55 AM 50.0 °F - 35.6 °F 58% 30.08 in 10.0 mi SSE 6.9 mph - N/A   Unknown
12:55 PM 50.0 °F - 35.6 °F 58% 30.04 in 10.0 mi SE 10.4 mph - N/A   Unknown
1:15 PM 48.2 °F - 37.4 °F 66% 30.04 in 10.0 mi SSE 11.5 mph - N/A   Unknown
1:55 PM 48.2 °F - 37.4 °F 66% 30.03 in 10.0 mi South 4.6 mph - N/A   Unknown
2:15 PM 50.0 °F - 39.2 °F 66% 30.03 in 10.0 mi South 5.8 mph - N/A   Unknown
2:35 PM 50.0 °F - 39.2 °F 66% 30.02 in 10.0 mi SSE 4.6 mph - N/A   Unknown
2:55 PM 50.0 °F - 39.2 °F 66% 30.03 in 10.0 mi Calm Calm - N/A   Unknown
3:15 PM 50.0 °F - 41.0 °F 71% 30.03 in 10.0 mi Calm Calm - N/A Rain Rain
3:35 PM 50.0 °F - 41.0 °F 71% 30.02 in 10.0 mi Calm Calm - N/A Rain Light Rain
3:55 PM 48.2 °F - 42.8 °F 82% 30.02 in 7.0 mi NNW 5.8 mph - 0.01 in Rain Light Rain
4:15 PM 48.2 °F - 42.8 °F 82% 30.03 in 10.0 mi Calm Calm - N/A Rain Light Rain
4:35 PM 46.4 °F - 42.8 °F 87% 30.03 in 10.0 mi Calm Calm - 0.01 in   Drizzle
4:55 PM 46.4 °F 42.9 °F 42.8 °F 87% 30.04 in 5.0 mi NW 6.9 mph - 0.02 in Rain Light Rain
5:15 PM 46.4 °F 42.9 °F 44.6 °F 93% 30.04 in 7.0 mi North 6.9 mph - N/A Rain Light Rain
5:35 PM 44.6 °F 40.7 °F 42.8 °F 93% 30.05 in 10.0 mi North 6.9 mph - N/A   Unknown
5:55 PM 44.6 °F 41.4 °F 42.8 °F 93% 30.08 in 10.0 mi North 5.8 mph - N/A   Unknown
6:15 PM 44.6 °F 41.4 °F 42.8 °F 93% 30.08 in 7.0 mi NE 5.8 mph - N/A   Drizzle
6:35 PM 44.6 °F 40.7 °F 42.8 °F 93% 30.07 in 4.0 mi NE 6.9 mph - 0.01 in   Drizzle
6:55 PM 44.6 °F 40.2 °F 44.6 °F 100% 30.07 in 5.0 mi NE 8.1 mph - 0.01 in   Mist
7:15 PM 44.6 °F 40.7 °F 44.6 °F 100% 30.07 in 10.0 mi NE 6.9 mph - N/A   Unknown
7:35 PM 44.6 °F 41.4 °F 44.6 °F 100% 30.09 in 10.0 mi NNE 5.8 mph - N/A   Unknown
7:55 PM 44.6 °F 41.4 °F 44.6 °F 100% 30.09 in 10.0 mi NNE 5.8 mph - N/A   Unknown
8:15 PM 44.6 °F 42.2 °F 44.6 °F 100% 30.09 in 5.0 mi NE 4.6 mph - N/A   Mist
8:35 PM 44.6 °F 40.7 °F 44.6 °F 100% 30.09 in 4.0 mi NE 6.9 mph - N/A   Mist
8:55 PM 44.6 °F 40.2 °F 44.6 °F 100% 30.08 in 2.5 mi ENE 8.1 mph - N/A   Mist
9:15 PM 44.6 °F 40.7 °F 44.6 °F 100% 30.09 in 1.8 mi East 6.9 mph - N/A   Mist
9:35 PM 44.6 °F 43.1 °F 44.6 °F 100% 30.11 in 2.5 mi NE 3.5 mph - N/A   Mist
9:55 PM 44.6 °F 42.2 °F 44.6 °F 100% 30.11 in 2.0 mi NNE 4.6 mph - N/A   Mist
10:15 PM 44.6 °F 41.4 °F 44.6 °F 100% 30.12 in 4.0 mi NNE 5.8 mph - N/A   Mist
10:35 PM 44.6 °F 41.4 °F 44.6 °F 100% 30.13 in 5.0 mi NNE 5.8 mph - N/A   Mist
10:55 PM 44.6 °F 41.4 °F 44.6 °F 100% 30.14 in 5.0 mi NNE 5.8 mph - N/A   Mist
11:15 PM 44.6 °F 42.2 °F 44.6 °F 100% 30.14 in 4.0 mi NE 4.6 mph - N/A   Mist
11:55 PM 44.6 °F 40.7 °F 44.6 °F 100% 30.15 in 2.5 mi NNE 6.9 mph - N/A   Mist